Location: Newark
(15.4608°S, 41.1635°W)
Time: 07:30:40
(UTC+00:00)

Transit 4A - Pass Details

Date: 10 March 2021
Orbit: 869 x 975 km, 66.8° (Epoch: 22 April)

Event Time Altitude Azimuth Distance (km) Brightness Sun altitude
Rises 23:12:52 0° 311° (NW) 3,443 11.3 -31.9°
Reaches altitude 10° 23:15:47 10° 298° (WNW) 2,509 10.7 -32.5°
Maximum altitude 23:20:23 24° 245° (WSW) 1,718 9.8 -33.6°
Drops below altitude 10° 23:25:03 10° 192° (SSW) 2,541 10.4 -34.7°
Sets 23:28:03 0° 178° (S) 3,496 11.1 -35.4°
